TimeMST,TemperatureF,Dew PointF,Humidity,Sea Level PressureIn,VisibilityMPH,Wind Direction,Wind SpeedMPH,Gust SpeedMPH,PrecipitationIn,Events,Conditions,WindDirDegrees,DateUTC
12:53 AM,21.0,14.0,74,30.37,10.0,Variable,5.8,-,N/A,,Clear,0,2013-03-05 07:53:00
1:53 AM,21.0,12.9,71,30.39,10.0,Variable,4.6,-,N/A,,Clear,0,2013-03-05 08:53:00
2:53 AM,19.9,10.9,68,30.40,-9999.0,Variable,5.8,-,N/A,,Clear,0,2013-03-05 09:53:00
3:53 AM,19.0,10.9,71,30.43,10.0,Variable,3.5,-,N/A,,Clear,0,2013-03-05 10:53:00
6:53 AM,16.0,9.0,74,30.49,10.0,South,5.8,-,N/A,,Clear,170,2013-03-05 13:53:00
7:53 AM,19.9,9.0,62,30.51,10.0,Variable,5.8,-,N/A,,Clear,0,2013-03-05 14:53:00
8:53 AM,25.0,9.0,51,30.48,10.0,Calm,Calm,-,N/A,,Clear,0,2013-03-05 15:53:00
9:53 AM,26.1,8.1,47,30.46,10.0,Variable,3.5,-,N/A,,Clear,0,2013-03-05 16:53:00
10:53 AM,30.0,10.0,43,30.41,10.0,Calm,Calm,-,N/A,,Clear,0,2013-03-05 17:53:00
11:53 AM,34.0,10.0,37,30.38,10.0,SSE,4.6,-,N/A,,Clear,150,2013-03-05 18:53:00
12:53 PM,37.0,10.9,34,30.33,10.0,Calm,Calm,-,N/A,,Clear,0,2013-03-05 19:53:00
1:53 PM,41.0,12.0,31,30.28,10.0,Variable,3.5,-,N/A,,Clear,0,2013-03-05 20:53:00
2:53 PM,44.1,10.0,25,30.24,10.0,Variable,4.6,-,N/A,,Clear,0,2013-03-05 21:53:00
3:53 PM,46.0,8.1,21,30.21,10.0,Variable,3.5,-,N/A,,Clear,0,2013-03-05 22:53:00
4:53 PM,46.0,3.9,18,30.19,10.0,SSE,3.5,-,N/A,,Clear,160,2013-03-05 23:53:00
5:53 PM,42.1,16.0,35,30.20,10.0,SSE,3.5,-,N/A,,Clear,150,2013-03-06 00:53:00
6:53 PM,34.0,17.1,50,30.24,10.0,SE,3.5,-,N/A,,Clear,130,2013-03-06 01:53:00
7:53 PM,30.9,18.0,59,30.24,10.0,Calm,Calm,-,N/A,,Clear,0,2013-03-06 02:53:00
8:53 PM,28.9,18.0,64,30.25,10.0,Calm,Calm,-,N/A,,Clear,0,2013-03-06 03:53:00
9:53 PM,28.0,18.0,66,30.26,10.0,ESE,3.5,-,N/A,,Clear,110,2013-03-06 04:53:00
10:53 PM,27.0,17.1,66,30.24,10.0,WSW,6.9,-,N/A,,Clear,240,2013-03-06 05:53:00
11:53 PM,26.1,18.0,71,30.22,10.0,Calm,Calm,-,N/A,,Clear,0,2013-03-06 06:53:00